This is the latest recevied weather packets stored in our database for station/object ON7AMI-5. If no packets are shown the sender has not sent any weather packets the latest 1 day(s).
| Time | Temp. | Humidity | Pressure | Rain* | Wind** | Luminosity | Snow |
|---|---|---|---|---|---|---|---|
| 1778010335 | 11.67° C | 92% | 1010.7 hPa | 0 mm | 3.13 m/s, 14° | - | - |
| 1778010029 | 11.67° C | 92% | 1010.6 hPa | 0 mm | 4.02 m/s, 20° | - | - |
| 1778009735 | 12.22° C | 92% | 1010.6 hPa | 0 mm | 3.13 m/s, 20° | - | - |
| 1778009435 | 12.22° C | 92% | 1010.5 hPa | 0 mm | 3.58 m/s, 0° | - | - |
| 1778009128 | 12.22° C | 92% | 1010.5 hPa | 0 mm | 4.02 m/s, 14° | - | - |
| 1778008835 | 12.22° C | 92% | 1010.5 hPa | 0 mm | 6.26 m/s, 21° | - | - |
| 1778008535 | 12.22° C | 92% | 1010.4 hPa | 0 mm | 4.92 m/s, 22° | - | - |
| 1778008229 | 12.22° C | 92% | 1010.4 hPa | 0 mm | 4.47 m/s, 21° | - | - |
| 1778007936 | 12.78° C | 92% | 1010.3 hPa | 0 mm | 4.47 m/s, 17° | - | - |
| 1778007636 | 12.78° C | 92% | 1010.4 hPa | 0 mm | 5.81 m/s, 26° | - | - |
| 1778007329 | 12.78° C | 92% | 1010.4 hPa | 0 mm | 4.92 m/s, 22° | - | - |
| 1778007035 | 12.78° C | 92% | 1010.4 hPa | 0 mm | 3.58 m/s, 18° | - | - |
| 1778006728 | 12.78° C | 92% | 1010.3 hPa | 0 mm | 5.36 m/s, 9° | - | - |
| 1778006436 | 12.78° C | 92% | 1010.3 hPa | 0 mm | 8.05 m/s, 19° | - | - |
| 1778006135 | 12.78° C | 92% | 1010.3 hPa | 0 mm | 5.81 m/s, 28° | - | - |
| 1778005835 | 13.33° C | 92% | 1010.3 hPa | 0 mm | 6.71 m/s, 18° | - | - |
| 1778005535 | 13.33° C | 92% | 1010.3 hPa | 0 mm | 6.26 m/s, 29° | - | - |
| 1778005235 | 13.33° C | 92% | 1010.4 hPa | 0 mm | 5.81 m/s, 22° | - | - |
| 1778004935 | 13.33° C | 92% | 1010.4 hPa | 0 mm | 4.02 m/s, 22° | - | - |
| 1778004636 | 13.33° C | 92% | 1010.4 hPa | 0 mm | 4.47 m/s, 5° | - | - |
| 1778004336 | 13.33° C | 92% | 1010.4 hPa | 0 mm | 5.81 m/s, 20° | - | - |
| 1778004035 | 13.33° C | 92% | 1010.4 hPa | 0 mm | 5.36 m/s, 20° | - | - |
| 1778003735 | 13.89° C | 92% | 1010.4 hPa | 0 mm | 8.05 m/s, 22° | - | - |
| 1778003435 | 13.89° C | 92% | 1010.4 hPa | 0 mm | 6.71 m/s, 24° | - | - |
| 1778003135 | 13.89° C | 92% | 1010.3 hPa | 0 mm | 6.26 m/s, 1° | - | - |
* Rain latest hour (hover to see other rain measurements)
** Current wind speed in m/s (hover to see current wind gust speed)